When you browse on this site, cookies collect data to enhance your experience and personalize the content and advertising you see.
Visit our Privacy Policy to learn more. By continuing to use the site, you agree to this use of cookies and data.

Meteo pe oră la Dzierzazna

Astăzi, 21 Septembrie, Luni

Timp Temperatura Precipitaţii Vânt Presiune Umiditate
00:00 +13°C° 0 mm 2 m/s 752 mmHg 66%
01:00 +12°C° 0 mm 2 m/s 752 mmHg 69%
02:00 +12°C° 0 mm 2 m/s 752 mmHg 71%
03:00 +12°C° 0 mm 2 m/s 752 mmHg 73%
04:00 +10°C° 0 mm 2 m/s 752 mmHg 75%
05:00 +12°C° 0 mm 2 m/s 752 mmHg 73%
06:00 +12°C° 0 mm 2 m/s 752 mmHg 72%
07:00 +13°C° 0 mm 2 m/s 752 mmHg 71%
08:00 +15°C° 0 mm 2 m/s 752 mmHg 64%
09:00 +17°C° 0 mm 2 m/s 752 mmHg 57%
10:00 +19°C° 0 mm 2 m/s 752 mmHg 50%
11:00 +21°C° 0 mm 2 m/s 752 mmHg 47%
12:00 +23°C° 0 mm 2 m/s 752 mmHg 43%
13:00 +24°C° 0 mm 2 m/s 751 mmHg 39%
14:00 +24°C° 0 mm 2 m/s 751 mmHg 40%
15:00 +24°C° 0 mm 1 m/s 751 mmHg 41%
16:00 +24°C° 0 mm 1 m/s 750 mmHg 42%
17:00 +22°C° 0 mm 1 m/s 750 mmHg 46%
18:00 +20°C° 0 mm 2 m/s 750 mmHg 49%
19:00 +18°C° 0 mm 2 m/s 750 mmHg 53%
20:00 +17°C° 0 mm 2 m/s 750 mmHg 54%
21:00 +17°C° 0 mm 2 m/s 750 mmHg 56%
22:00 +16°C° 0 mm 2 m/s 750 mmHg 57%
23:00 +16°C° 0 mm 2 m/s 750 mmHg 59%

Mâine, 22 Septembrie, Marţi

Timp Temperatura Precipitaţii Vânt Presiune Umiditate
00:00 +16°C° 0 mm 2 m/s 750 mmHg 61%
01:00 +15°C° 0 mm 2 m/s 750 mmHg 62%
02:00 +15°C° 0 mm 2 m/s 750 mmHg 63%
03:00 +15°C° 0 mm 2 m/s 749 mmHg 63%
04:00 +15°C° 0 mm 2 m/s 749 mmHg 64%
05:00 +15°C° 0 mm 2 m/s 749 mmHg 63%
06:00 +16°C° 0 mm 3 m/s 749 mmHg 61%
07:00 +17°C° 0 mm 3 m/s 749 mmHg 60%
08:00 +19°C° 0 mm 3 m/s 749 mmHg 55%
09:00 +21°C° 0 mm 3 m/s 749 mmHg 49%
10:00 +25°C° 0 mm 4 m/s 749 mmHg 44%
11:00 +26°C° 0 mm 4 m/s 748 mmHg 40%
12:00 +27°C° 0 mm 4 m/s 748 mmHg 36%
13:00 +28°C° 0 mm 4 m/s 748 mmHg 32%
14:00 +28°C° 0 mm 4 m/s 747 mmHg 35%
15:00 +27°C° 0 mm 3 m/s 747 mmHg 38%
16:00 +27°C° 0 mm 3 m/s 746 mmHg 41%
17:00 +25°C° 0 mm 3 m/s 746 mmHg 45%
18:00 +22°C° 0 mm 3 m/s 746 mmHg 48%
19:00 +20°C° 0 mm 3 m/s 746 mmHg 52%
20:00 +20°C° 0 mm 3 m/s 746 mmHg 53%
21:00 +19°C° 0 mm 3 m/s 746 mmHg 54%
22:00 +19°C° 0 mm 3 m/s 745 mmHg 56%
23:00 +18°C° 0 mm 3 m/s 745 mmHg 56%

Poimâine, 23 Septembrie, Miercuri

Timp Temperatura Precipitaţii Vânt Presiune Umiditate
00:00 +18°C° 0 mm 3 m/s 745 mmHg 56%
01:00 +18°C° 0 mm 3 m/s 745 mmHg 56%
02:00 +18°C° 0 mm 3 m/s 745 mmHg 56%
03:00 +17°C° 0 mm 3 m/s 744 mmHg 56%
04:00 +17°C° 0 mm 3 m/s 744 mmHg 56%
05:00 +18°C° 0 mm 3 m/s 744 mmHg 56%
06:00 +18°C° 0 mm 3 m/s 744 mmHg 57%
07:00 +18°C° 0 mm 3 m/s 744 mmHg 57%
08:00 +20°C° 0 mm 3 m/s 744 mmHg 52%
09:00 +23°C° 0 mm 4 m/s 744 mmHg 47%
10:00 +26°C° 0 mm 4 m/s 744 mmHg 42%
11:00 +27°C° 0 mm 4 m/s 743 mmHg 40%
12:00 +28°C° 0 mm 4 m/s 743 mmHg 39%
13:00 +29°C° 0 mm 4 m/s 743 mmHg 38%
14:00 +29°C° 0 mm 4 m/s 743 mmHg 40%
15:00 +28°C° 0 mm 3 m/s 743 mmHg 43%
16:00 +28°C° 0 mm 3 m/s 742 mmHg 45%
17:00 +26°C° 0 mm 3 m/s 742 mmHg 50%
18:00 +24°C° 0 mm 3 m/s 743 mmHg 55%
19:00 +21°C° 0 mm 3 m/s 743 mmHg 60%
20:00 +21°C° 0 mm 2 m/s 743 mmHg 62%
21:00 +20°C° 0 mm 2 m/s 743 mmHg 64%
22:00 +20°C° 0 mm 2 m/s 743 mmHg 66%
23:00 +20°C° 0 mm 2 m/s 743 mmHg 68%

24 Septembrie, Joi

Timp Temperatura Precipitaţii Vânt Presiune Umiditate
00:00 +19°C° 0 mm 2 m/s 743 mmHg 70%
01:00 +19°C° 0 mm 2 m/s 743 mmHg 72%
02:00 +19°C° 0 mm 3 m/s 743 mmHg 75%
03:00 +18°C° 0 mm 3 m/s 743 mmHg 78%
04:00 +18°C° 0 mm 3 m/s 743 mmHg 81%
05:00 +18°C° 0 mm 3 m/s 743 mmHg 81%
06:00 +18°C° 0 mm 4 m/s 743 mmHg 82%
07:00 +18°C° 0 mm 4 m/s 743 mmHg 82%
08:00 +20°C° 0 mm 4 m/s 743 mmHg 76%
09:00 +21°C° 0 mm 4 m/s 744 mmHg 69%
10:00 +23°C° 0 mm 4 m/s 744 mmHg 63%
11:00 +25°C° 0 mm 4 m/s 744 mmHg 58%
12:00 +26°C° 0 mm 3 m/s 744 mmHg 54%
13:00 +27°C° 0 mm 3 m/s 744 mmHg 50%
14:00 +26°C° 0 mm 3 m/s 744 mmHg 50%
15:00 +26°C° 0 mm 3 m/s 744 mmHg 50%
16:00 +26°C° 0 mm 2 m/s 744 mmHg 50%
17:00 +25°C° 0 mm 2 m/s 744 mmHg 54%
18:00 +23°C° 0 mm 2 m/s 744 mmHg 58%
19:00 +21°C° 0 mm 2 m/s 745 mmHg 62%
20:00 +21°C° 0 mm 2 m/s 745 mmHg 63%
21:00 +20°C° 0 mm 2 m/s 745 mmHg 64%
22:00 +20°C° 0 mm 2 m/s 745 mmHg 66%
23:00 +19°C° 0 mm 2 m/s 745 mmHg 68%

25 Septembrie, Vineri

Timp Temperatura Precipitaţii Vânt Presiune Umiditate
00:00 +19°C° 0 mm 2 m/s 744 mmHg 71%
01:00 +18°C° 0 mm 2 m/s 744 mmHg 74%
02:00 +18°C° 0 mm 3 m/s 744 mmHg 76%
03:00 +18°C° 0 mm 3 m/s 743 mmHg 78%
04:00 +17°C° 0 mm 3 m/s 743 mmHg 81%
05:00 +18°C° 0 mm 3 m/s 742 mmHg 79%
06:00 +18°C° 0 mm 4 m/s 742 mmHg 77%
07:00 +19°C° 0 mm 4 m/s 741 mmHg 75%
08:00 +20°C° 0 mm 4 m/s 741 mmHg 69%
09:00 +22°C° 0 mm 5 m/s 741 mmHg 63%
10:00 +25°C° 0 mm 5 m/s 740 mmHg 57%
11:00 +26°C° 0 mm 5 m/s 740 mmHg 53%
12:00 +27°C° 0 mm 6 m/s 739 mmHg 49%
13:00 +28°C° 0 mm 6 m/s 739 mmHg 45%
14:00 +26°C° 0 mm 6 m/s 738 mmHg 51%
15:00 +25°C° 0 mm 5 m/s 738 mmHg 57%
16:00 +22°C° 0 mm 4 m/s 738 mmHg 63%
17:00 +22°C° 0.2 mm 4 m/s 737 mmHg 67%
18:00 +21°C° 0.2 mm 4 m/s 737 mmHg 71%
19:00 +20°C° 0.2 mm 5 m/s 737 mmHg 75%
20:00 +20°C° 0.4 mm 5 m/s 736 mmHg 76%
21:00 +20°C° 0.4 mm 6 m/s 736 mmHg 78%
22:00 +20°C° 0.4 mm 7 m/s 736 mmHg 79%
23:00 +19°C° 0.5 mm 6 m/s 736 mmHg 81%

26 Septembrie, Sâmbătă

Timp Temperatura Precipitaţii Vânt Presiune Umiditate
00:00 +19°C° 0.5 mm 6 m/s 735 mmHg 83%
01:00 +19°C° 0.5 mm 5 m/s 735 mmHg 85%
02:00 +18°C° 0.3 mm 4 m/s 735 mmHg 87%
03:00 +17°C° 0.3 mm 4 m/s 734 mmHg 88%
04:00 +16°C° 0.3 mm 3 m/s 734 mmHg 90%
05:00 +14°C° 0.8 mm 3 m/s 734 mmHg 90%
06:00 +13°C° 0.8 mm 3 m/s 734 mmHg 91%
07:00 +13°C° 0.8 mm 3 m/s 735 mmHg 92%
08:00 +13°C° 0.5 mm 4 m/s 735 mmHg 90%
09:00 +13°C° 0.5 mm 4 m/s 736 mmHg 89%
10:00 +13°C° 0.5 mm 4 m/s 736 mmHg 87%
11:00 +14°C° 0 mm 4 m/s 736 mmHg 85%
12:00 +14°C° 0 mm 4 m/s 737 mmHg 83%
13:00 +14°C° 0 mm 4 m/s 737 mmHg 81%
14:00 +14°C° 0 mm 4 m/s 738 mmHg 81%
15:00 +14°C° 0 mm 4 m/s 738 mmHg 82%
16:00 +13°C° 0 mm 4 m/s 738 mmHg 83%
17:00 +13°C° 0.1 mm 4 m/s 738 mmHg 85%
18:00 +13°C° 0.1 mm 4 m/s 738 mmHg 86%
19:00 +12°C° 0.1 mm 4 m/s 737 mmHg 88%
20:00 +12°C° 2.2 mm 5 m/s 737 mmHg 90%
21:00 +11°C° 2.2 mm 6 m/s 736 mmHg 92%
22:00 +11°C° 2.2 mm 6 m/s 735 mmHg 94%
23:00 +13°C° 3.3 mm 6 m/s 734 mmHg 95%
Arată mai mult